TIMESTAMP,CO2_1_1_1,H2O_1_1_1,TAU_1_1_1,TAU_SSITC_TEST_1_1_1,H_1_1_1,H_SSITC_TEST_1_1_1,LE_1_1_1,LE_SSITC_TEST_1_1_1,FC_1_1_1,FC_SSITC_TEST_1_1_1,WD_0_0_1,WS_0_0_1,WS_MAX_0_0_1,U_SIGMA_0_0_1,V_SIGMA_0_0_1,W_SIGMA_0_0_1,USTAR_0_0_1,MO_LENGTH_0_0_1,ZL_0_0_1,FETCH_MAX_0_0_1,FETCH_70_0_0_1,FETCH_80_0_0_1,FETCH_90_0_0_1,PA_0_0_1,RH_0_0_1,TA_0_0_1,VPD_0_0_1,T_SONIC_0_0_1,T_SONIC_SIGMA_0_0_1
[yyyymmddHHMMSS],[mmolCO2 mol-1],[mmolH2O mol-1],[kg m-1 s-2],[#],[W m-2],[#],[W m-2],[#],[umolCO2 m-2 s-1],[#],[Decimal degrees],[m s-1],[m s-1],[m s-1],[m s-1],[m s-1],[m s-1],[m],[#],[m],[m],[m],[m],[kPa],[%],[deg C],[hPa],[deg C],[deg C]
20210827003000,398.18824437654058,15.824956706328962,0.32073587730621028,0,-20.914725203669803,0,49.796793313545834,0,1.6385044700978597,1,27.942301449637597,2.5961207726551305,6.4382378560091293,1.0458120649233966,0.75667270985448976,0.56664079236966214,0.53482575303556501,612.68245248745632,3.1011170505799650E-002,119.55795555967225,218.59007381727463,261.59648967542768,327.48776290490918,94.341967239128863,71.613448275862069,18.212068965517233,5.9194586517889727,18.875519224737616,0.13676678593498415
20210827010000,400.80624017867922,15.672524982800292,0.44893043690586604,0,1.7984950878343979,2,37.870593881824142,1,-0.64760522659194475,2,15.013875182901415,3.2327732291404869,9.6791558362038348,1.4432402824190318,0.85201328966687973,0.66287954791383308,0.63234937691403592,-11772.786108080261,-1.6138915483191643E-003,120.57933377395544,220.45747894485800,263.83129667122051,330.28547607179644,94.306116354600704,72.964333333333329,17.754999999999995,5.4779968096933613,18.379184315151633,0.12874565670749205
20210827013000,402.57532775488306,15.693736123645035,0.50534065946601969,0,-11.758969140994823,1,31.861220315430103,1,3.3902634860002574,1,26.086021680659798,3.3763506257735783,8.2747665821079757,1.4092781142562958,1.0104529616065379,0.73319287729417693,0.67038997150638879,2145.9009499567082,8.8540899338263070E-003,116.55806181354167,213.10531128230994,255.03262974897265,319.27058917294124,94.330689200303823,74.814666666666668,17.383666666666670,4.9849039049996779,17.998279235839902,0.13622776788804128
20210827020000,404.35544077049036,15.906611454218604,0.47024071827091640,0,-4.9513502444429136,0,36.098793391049711,0,3.3442038032206209,0,37.108878820086687,2.9789936664879417,7.0889779247064917,1.3044106078819435,0.87927672642923327,0.66521336106625428,0.64611003659904320,4563.7072982126328,4.1632819018523190E-003,122.32953328996383,223.65740185762718,267.66078712608959,335.07954369742396,94.365117253049121,77.988000000000000,16.946000000000026,4.2377697551840967,17.604403633787115,0.10744244743462010
20210827023000,406.28838990117555,16.002725658214711,0.25001655477929724,0,-9.0463507933714560,0,24.401551475872338,0,2.5162594841981512,0,44.486064356248789,2.3332604384429154,6.2638719866510320,1.0359671178446761,0.66074388756199176,0.53094844809507480,0.47086550291363360,967.18375440388490,1.9644664122497053E-002,113.74452836749155,207.96127481246157,248.87653189981052,311.56388517493571,94.415010845920150,79.350333333333339,16.776333333333355,3.9329260152620376,17.471316080729196,5.1481911377300245E-002
20210827030000,408.55880304121956,15.893132499547779,0.20957717617629776,0,-10.600199211540358,0,30.935086878660861,0,2.0163375585463426,0,53.355138399590572,2.5535113973999928,7.0087438137235170,1.0548119106901457,0.90277532072908484,0.55354128934521307,0.43105951390660802,633.34346577364431,2.9999520049979581E-002,102.50963115944525,187.42029952946913,224.29423072435844,280.78976114524426,94.432704983289938,78.805000000000007,16.779666666666685,4.0376443391072874,17.462642061869303,6.5733170609304392E-002
20210827033000,408.95470973706500,15.327757693836794,0.44067187341533093,0,-6.2125156101144334,0,17.915847665639898,0,2.5696491390418132,0,65.932043496952417,3.0198452319335169,9.6112697627557218,1.5786936795296567,0.95541821353538336,0.67465598232631907,0.62486600860267116,3292.0466163193205,5.7714857091674451E-003,117.76561915460674,215.31311123243754,257.67480240930013,322.57827581205760,94.455368232421876,76.260000000000005,16.730000000000018,4.5082258481495163,17.332475044250486,8.9221971595921837E-002
20210827040000,409.85570682537866,15.003618049815254,0.29739801936737570,0,-1.4499404106247458,2,32.653601067458617,1,1.7003947126707533,0,64.377602959856318,3.2183154287748210,9.2561342169378218,1.3119732655219123,0.91544044160421689,0.63376753957297061,0.51301841549205063,7805.5638351991120,2.4341611190622373E-003,105.73463501283760,193.31663513569470,231.35063849988364,289.62354633639399,94.458393025173606,76.131000000000000,16.420999999999992,4.4445287711975174,16.984714143541112,0.14764290739894573
20210827043000,410.39982007604976,14.256258934990628,0.30941676483335478,0,-6.2764656951966797,1,14.583689094293087,1,1.7725294008626236,0,62.807619718409683,3.3823319179992333,8.5862767361833097,1.3011749268949655,1.0836676943224848,0.64171034345870803,0.52295087307591870,1909.2080941854333,9.9517700861761638E-003,106.30467940807438,194.35885809652260,232.59791319653624,291.18498624960330,94.424833585937492,74.119666666666660,16.033999999999992,4.7015893106820981,16.528592237684563,0.13699120485558811
20210827050000,411.48788192877493,14.013971291190861,0.36193423252173312,0,-4.1495071404458965,1,14.445708945885611,0,1.9181663493677528,0,65.829246843066045,2.8727392647203041,7.6407332554414689,1.2638406939146074,1.0020376899661190,0.64926253213013185,0.56527394122532482,3646.2227889023025,5.2108719351512695E-003,112.07940043543410,204.91688988734478,245.23318069120501,307.00284179754368,94.393978771852602,74.693333333333328,15.640333333333331,4.4830656491698981,16.123139271516607,0.15744245234692009
20210827053000,411.65828599430819,13.697747727319625,0.39286093356108392,0,3.3184500627999221,1,31.235527150462360,0,3.2653019597315338,0,70.635524416393579,2.7093092355189858,7.5302043865254040,1.3416772676469810,1.0173991846986503,0.67027444871086750,0.58853802336624128,-5146.2431502611253,-3.6920136583588987E-003,112.84241952540626,206.31193213627114,246.90268996440793,309.09286929641644,94.413875220052091,74.387666666666661,15.351666666666688,4.4539944899796344,15.808958774990515,8.0689440592704165E-002
20210827060000,411.37106811914106,13.399951266681265,0.45134620604398246,0,-2.6182846175692198,2,22.101016057471000,0,2.6479146209160995,1,76.353394909302182,3.7588621027721407,9.0774234105624227,1.4520855897643692,1.0993847197033937,0.84112060052383220,0.63061436017094552,8021.2734491693936,2.3687011944428173E-003,99.444179530264620,181.81567627567455,217.58692813031874,272.39301421498647,94.380739526475693,73.983333333333334,15.088999999999999,4.4485741324900143,15.489708012898745,8.1314707460186278E-002
20210827063000,411.54136852635293,13.170023942642269,0.40325026640738970,0,-8.5852533113149310,1,19.712559818048319,1,2.9512908658875707,0,67.590933639827242,3.2636558794917385,7.6867539881906426,1.1981979889834133,1.0876865453929705,0.76989973745814766,0.59596151976127598,2064.3431151638210,9.2038963195768004E-003,102.01925265414049,186.52373122356937,223.22126744893691,279.44653844687048,94.359482734157979,73.371333333333340,14.945666666666682,4.5114028046204773,15.341581487019880,6.0638418005577378E-002
20210827070000,412.21889487316309,13.123454625419336,0.39895645304039651,0,-20.288957785140258,0,17.532778760705728,0,2.5946252238988086,0,67.498803730044628,2.9039576442637092,7.2238475832595048,1.1443994940857822,0.96461356750149951,0.67351825099258578,0.59262601678837601,858.61708526287657,2.2128606949607704E-002,113.03162612260223,206.65786214029455,247.31667982746811,309.61113547914346,94.311644238932288,74.457333333333338,14.654999999999973,4.2470632374510657,15.057995362175916,0.13790584274946815
20210827073000,413.00713145822078,13.179294765019012,0.30274527897706227,0,-11.267445151951092,0,17.988005041967796,0,1.9931305682652061,0,73.106968311545032,3.0335868741960059,7.3984578653063142,1.0474192666198423,0.94194705366402609,0.64025311251855854,0.51609039397154621,1020.8418818335363,1.8612089039562189E-002,105.37902148659684,192.66646019260952,230.57254515000821,288.64946579426572,94.277494562717010,76.129999999999995,14.371333333333325,3.8968462628537988,14.778772241380466,7.2711164300726314E-002
20210827080000,413.60048056478360,13.078915316611747,0.39523078384319488,0,-3.2220203752986478,2,31.602737998378881,1,2.2008455817094426,0,72.244441722851676,3.1331702736881915,7.9976734735930926,1.2673330451712146,0.90918505269055894,0.64322618591116532,0.58945286847417433,5319.9071293485385,3.5714909185504311E-003,116.76782615476503,213.48882739897155,255.49160058923366,319.84516620148685,94.303949913705694,76.183666666666667,14.246666666666670,3.8568355321333754,14.645883337250439,6.7157145076064781E-002
20210827083000,414.70132931826328,13.241119441695444,0.20879804640496014,0,-19.113875672127303,0,-19.936806030029270,2,0.59499843156409704,2,83.641268917121778,2.0292118353670956,5.5726255898014392,0.90128205176464349,0.75822354253903412,0.55120380054547335,0.42824445227839819,343.97729638655431,5.5236203666907735E-002,102.31952929652243,187.07273269416672,223.87828199230984,280.26904269099151,94.336651324379133,78.042000000000002,14.070333333333338,3.5154913083599788,14.499968185691841,8.0644228945461000E-002
20210827090000,414.69927254272653,13.391427249756127,0.48268727079620216,0,-18.635298570888256,0,15.957097821936401,1,4.9495815320129637,0,90.766581273141881,2.4946943978487388,7.4118238562723500,1.2549651029427114,1.0950105066000602,0.76913681410198620,0.65111441431868844,1240.2026102426121,1.5320077415643533E-002,109.59175164449485,200.36867450261897,239.79012850610610,300.18878635786876,94.349533933810761,78.849999999999994,14.087666666666678,3.3899381836936846,14.522544736226450,7.9021950476583419E-002
20210827093000,416.09858605196666,13.490574071401490,0.13918649949764106,0,-9.9622833227879628,0,10.614588076877041,0,3.4454906613755525,0,101.99531797343145,1.3837084896696070,4.6662565073154942,0.72139026417806840,0.65113731097900418,0.40616794021023311,0.34968861991905426,359.32183833779658,5.2877387269009236E-002,111.07992725182167,203.08953414207875,243.04630257729113,304.26512990332083,94.329291413194440,79.391000000000005,14.092666666666673,3.3042974037011321,14.567900130377893,7.7954020465547780E-002
20210827100000,416.61815068962187,13.570810989273141,0.24565616711438307,0,-21.657795295541174,0,14.594359118147988,1,4.2495388131388037,0,89.771837558686613,2.0634957978612567,6.6319262723121204,0.94909515493041918,0.78316616539100659,0.53721912175467967,0.46474542571858668,387.86378276976245,4.8986270036144308E-002,111.50794928926278,203.87209493714835,243.98282798017354,305.43754857558247,94.281707025173617,79.466666666666669,14.161666666666690,3.3069237350932212,14.607669263203945,0.18352379806571481
20210827103000,415.36207974267711,13.515094560622979,0.70204627734794556,0,-152.40096585209602,0,42.666168830741292,0,6.8472850136210033,0,85.783757686453868,3.3281439544198768,11.856974568077680,1.4141645053770657,1.5547643998404619,0.90816829313059788,0.78417711206614316,264.73653013141450,7.1769468273110829E-002,111.34049849614279,203.56594148163370,243.61644048660608,304.97887491075767,94.258708901551984,85.253333333333330,13.014999999999986,2.2041418964263633,13.964975498913986,0.97345607168096215
20210827110000,415.72659544944543,13.871024565329138,0.65171203629606300,0,-73.225975776432875,1,22.378420957376647,0,2.8853151645590294,0,79.873729826863411,3.1266609901716627,9.9685046497867749,1.3222202927852418,1.6117808278319150,0.83410514751407261,0.75511265390235471,491.97902519023910,3.8619532596238335E-002,115.63456132579702,211.41685785533878,253.01198223391063,316.74097826284049,94.256686674546316,89.646666666666661,12.644333333333350,1.5103696157351807,15.261185317625348,0.64242418904345133
20210827113000,417.44176537581620,14.420226991887921,0.27949407015209449,0,-37.306323061719695,1,8.3445623573995569,1,1.9873405194611287,1,74.935484498554587,2.7148507155551718,6.0890860085935667,1.0314586674139310,0.82755881312399171,0.60584424099461209,0.49456362938399351,271.30524761764633,7.0031819018764138E-002,106.44955555162629,194.62373789281156,232.91490666145020,291.58182445186264,94.243351754774309,93.376666666666665,12.612666666666655,0.96422313000739912,13.185395727369553,0.38356980791689049
20210827120000,418.13872380110655,15.005366279498276,0.23692757245054805,0,-10.490659439940636,0,6.9908150629690891,0,1.1009365356827074,1,76.246220815030966,2.5061139643982684,6.6789772908745766,1.0510274867094058,0.86972927884824391,0.58299225625258722,0.45555154617937532,754.32570389111686,2.5188058556125451E-002,102.79090527341083,187.93455831757575,224.90966715019493,281.56021452004848,94.282269224826393,95.253333333333330,12.922333333333313,0.70518271581215919,13.471720983717205,9.3409810429421397E-002
20210827123000,415.79406746929567,14.449951239126200,0.38757264134315184,0,-32.159465524968837,0,37.060649662419692,1,3.3698269903100928,1,88.171401259967396,2.8905100162622146,8.4127923692070841,1.1692328981644138,1.0369631180279335,0.71230224638302009,0.58284557440646190,515.23015306094464,3.6876723707109121E-002,106.65132397570511,194.99263492276600,233.35638218868957,292.13449942457447,94.264438049696182,90.516666666666666,13.122666666666646,1.4274575675502887,13.637362251281786,0.11606494156373280
20210827130000,414.26500719624153,13.858883907146295,0.31091542759603857,0,-36.696828081870478,0,21.419701220433787,2,0.18247858648455181,2,83.594691779237763,2.5857866882301859,6.7368208802671532,1.1085601827816518,0.90308362872820525,0.63213194244142890,0.52208931915417156,324.41216968956689,5.8567469950900057E-002,107.44953925677932,196.45202703427628,235.10290181222123,294.32093474367821,94.229893811848967,86.663333333333327,13.143666666666661,2.0102281261776533,13.589166513231078,0.13060356526701414
20210827133000,413.90936246409154,13.981631024957442,0.40437756539469566,0,-43.843002152925060,0,19.173579659411093,1,-0.40446990846237707,0,80.833308385666783,2.9455088547662513,7.4066834891462312,1.2223014530992324,0.95772793131138201,0.71633656769352705,0.59516978018392142,402.22426046735126,4.7237329687482239E-002,107.96274045354863,197.39032249909738,236.22580183960650,295.72667232979995,94.213992154730903,89.113333333333330,12.849666666666678,1.6096889380247716,13.289814096238899,0.16236679449183386
20210827140000,414.52661434702406,14.582605647158594,0.47798235161717195,0,-29.030368559562021,0,34.479258957310179,0,-1.6864678285589776,0,89.580058632758352,2.6608394867229461,8.9712512410732188,1.3621821467600601,0.97162804243207390,0.74618921583486864,0.64748365651327189,782.05729255130279,2.4294895247401076E-002,111.77862776670385,204.36698152238324,244.57508082690217,306.17897886040731,94.187103231987834,91.613333333333330,13.065666666666687,1.2576904054317539,13.606859708150296,0.13903516548642508
20210827143000,414.98976030236048,15.101677337094682,0.53929800857210697,0,-0.15049126752715167,0,12.196149942828098,0,-4.7126344174530104,0,92.562827619307484,3.3438836449865472,9.4169022274959246,1.5575714647049472,1.1515084485131530,0.86016700052420036,0.68856180376994980,181383.56266358361,1.0475039590682067E-004,104.79559314685122,191.59976711262928,229.29598597048590,287.05136518352668,94.136327893203415,92.043333333333337,13.521666666666647,1.2292430044809226,14.076807430779013,0.19531854979353999
20210827150000,415.27160012959786,16.006173315238492,0.66263268367702177,0,-7.2307338765214215,0,3.0484942634872709,1,-3.5579336430360851,0,111.13312244434164,3.4087120890327562,10.159674448057018,1.6420714255083060,1.1175430722765860,0.82319515748619476,0.76425542425515058,5161.8608964406230,3.6808430876356059E-003,117.98953187079253,215.72249509092325,258.16473032981111,323.19160743157539,94.111747482310832,93.896666666666675,14.105999999999995,0.97941047924093261,14.754702050845026,0.17845391902801769
20210827153000,415.15723329017419,16.864211383870430,0.54740380519526621,0,-4.0935900990559917,0,3.7250276716865844,1,-5.8495924590261232,0,110.47947257916840,2.8446016074515366,9.2825145186350806,1.4560255569631557,0.99339615474943699,0.76452607594154665,0.69564405670374307,6876.3643430536367,2.7630880290968603E-003,116.10494603614065,212.27687112735572,254.04119847006038,318.02943485925846,94.098896601779515,94.523333333333341,14.808666666666682,0.91969606362770040,15.564001673380517,0.25834294489114074
20210827160000,415.61099011479263,17.548655890812412,0.62307964671699423,0,29.391265728015838,0,13.589909885337748,0,-8.1098317874542705,0,93.621759457394290,3.1291387060581948,7.8102302444478990,1.4049999357034850,1.0198775989080757,0.81758439360984803,0.74325240187132269,-1167.8057355511712,-1.6269829323138696E-002,116.02134146557161,212.12401530804536,253.85826909426686,317.80042898795438,94.044496293402773,94.603333333333339,15.404999999999973,0.94170066491341009,16.193852055867524,0.14139322563673004
20210827163000,415.53334945504082,18.087886179632815,0.51751062209870369,0,18.671774226909026,0,-10.333474039616899,2,-7.1213812472760418,0,92.004765995259859,2.9420047708524346,7.4467719627075821,1.2543993068126580,1.0036511291069872,0.75863847257053707,0.67788848393650680,-1394.7260777851545,-1.3622746647264443E-002,114.43361407870515,209.22114326517550,250.38427266281647,313.45139769519159,94.037021267554039,95.266666666666666,15.766999999999996,0.84533583470602713,16.587202092957170,0.10464409201869920
20210827170000,416.34183162244449,18.739111105767918,0.42971479785932309,0,6.3615305419220372,1,-3.4337687062315054,2,-9.0924361911678968,0,105.83243557411836,2.5458778853195851,7.5528579460818834,1.2147928192048558,1.0006747881661233,0.68656992452068877,0.61815836169303595,-3104.7183529594599,-6.1197177456979116E-003,115.12956886967127,210.49357058645771,251.90704318391880,315.35772568908817,94.046564993826763,96.390000000000001,16.138666666666666,0.66021232086770165,16.999926170557785,0.17909294048068333
20210827173000,417.25520167009711,18.902329536918501,0.47137018538567205,0,33.033121716567514,0,12.654789931532886,0,-7.8396523482045009,0,116.96775203970054,2.9864830275907952,8.5729204237186103,1.3029951729530529,1.0276515971635638,0.80461807328941970,0.64778618981471325,-688.05827375170054,-2.7613940162946906E-002,105.27576866393018,192.47768110197609,230.34662479337251,288.36664031644261,94.040624709402252,95.473333333333329,16.423666666666691,0.84303138764594454,17.305507374344984,0.10076667234069875
20210827180000,416.07602937840244,19.350705118335686,0.47282949512300715,0,51.498030200081239,0,60.059634016978329,0,-11.285569344625584,0,113.68390990006012,2.0605068691438970,6.4848134202410828,1.1999516964300314,0.84584833590118425,0.69223769083674835,0.64933851827157596,-444.54577814819459,-4.2740255186196202E-002,118.96730917509502,217.51018384926491,260.30413719146634,325.86989095111414,94.033285963324658,95.159999999999997,16.843000000000018,0.92573314831555542,17.698586025661939,0.15960416351278908
20210827183000,416.35814769640086,19.583080640820601,0.24842311762600772,0,-41.713957553135984,2,5.8527057111497918,2,-8.6882600154125349,0,115.51720896943662,2.3678641176417590,6.0711448910548436,0.96343614657557453,0.79138832874430043,0.59025359666860111,0.47067769059566827,209.03969751392188,9.0891826892040992E-002,104.47271406265817,191.00944116972215,228.58951658817566,286.16694934958088,94.041615086355094,96.239999999999995,16.854666666666674,0.71969718056014020,18.265086021554623,0.77454627702382273
20210827190000,417.06422475792550,19.966360740275981,0.11101297398068811,0,38.742550108416602,1,13.479429874846076,1,-4.5735952540387297,1,116.11632834753649,1.8153659524046719,5.9439530853482800,0.88550985036021856,0.61353373444132875,0.43139109692892208,0.31466927753497281,-67.250001932263388,-0.28252787292314846,97.284002881037580,177.86618440788146,212.86039507886841,266.47595570538607,94.025977041666664,98.340000000000003,16.817333333333352,0.31698676648509266,18.776373696221299,0.58566359671285861
20210827193000,418.87050900486503,20.142921266456639,9.0679050595180222E-002,0,8.4568367855220679,2,1.3911123855794032,0,-2.4432507541206623,0,103.34059899922056,1.8414609132030602,16.049083827575458,1.0161173700160469,0.68434328742065664,0.47170728059459072,0.28449014845282022,-227.60615392728724,-8.3477532009393215E-002,83.554649506207610,152.76454768601846,182.82014697027276,228.86912977894281,93.983132625651052,98.890000000000001,16.860999999999990,0.21254918943168605,19.980329255516210,0.68494231714454223
20210827200000,418.61809650230401,20.275334625678564,0.16218618382671357,0,0.27460534797868624,2,-1.9660353329834750,2,-3.7130303828983493,0,98.686360109724177,1.9772419149599170,18.213721580549500,1.3093716202009278,0.74256431619787766,0.57198302879511942,0.38066885859526806,-16784.265351229868,-1.1320126083807281E-003,90.403712449718967,165.28681914334592,197.80610767193747,247.62977427863865,93.912908953591625,99.016666666666666,16.932333333333304,0.18914822151285079,19.954324494258231,1.0490710452192438
20210827203000,418.84471502726024,20.566828881106130,0.19426322806733506,0,7.3341182711027590,1,4.8202675430625570,1,-1.2690076112704785,0,110.29787461122775,2.6850851503415574,8.0053737365340236,1.0275949272122633,0.79342725220223187,0.52522443297531485,0.41687909331073830,-825.18428529762855,-2.3025159759491851E-002,104.08473853405812,190.30009816499293,227.74061418024610,285.10422426927732,93.875012159505204,99.026666666666671,17.149666666666690,0.18982056268239147,20.122635720147059,0.13012924330724829
20210827210000,418.39216080335439,20.930277128750795,0.25429013404942091,0,-7.8431941741394988,2,6.1186506798999547,1,-1.1868036131753634,0,119.30962140109592,2.3968681808791161,6.4698885547009919,0.96523246728794809,0.84438537232942401,0.55647411175669248,0.47734194617965764,1158.0679114334800,1.6406637134502251E-002,110.75481281322510,202.49512125839229,242.33494217068724,303.37459108734942,93.826346133246517,98.973333333333329,17.427000000000021,0.20376403241190474,20.130754535251242,0.29481624080696833
20210827213000,417.48336781373445,21.431307856491561,0.13511824443957129,0,-10.059898175545550,1,-12.004428651280277,1,-2.6890308883203313,0,113.43009015496909,2.0111281706303425,5.7784780480387985,0.79764338811266378,0.58748694667321555,0.44872458760221257,0.34831145477408804,350.69433457314187,5.4178234795627424E-002,102.24573750128562,186.93781775778783,223.71682327121985,280.06691553157566,93.777556680121535,98.826666666666668,17.817333333333352,0.23867741685089641,20.214808148702105,0.31296962276656676
20210827220000,415.04839570685465,21.836688209302647,0.10970361539008518,0,-6.2695116019249513,1,5.1493245426176379,1,-4.1672470817715102,0,122.50184697389972,1.5151599979603296,3.6540549520483929,0.71835909413540100,0.52642523314800460,0.33331948484211321,0.31409464499548101,412.72331274388978,4.6035683988101268E-002,119.40286952053390,218.30652707557445,261.25715664446091,327.06295821686103,93.794731853515628,97.823333333333338,18.280666666666662,0.45585966582702897,20.993554833306234,0.12999645122813663
20210827223000,414.99456500662268,21.877281946347335,2.1004038133742048E-002,0,-8.1122243996610717,0,1.2809370219734602,1,-0.22911256723627951,0,138.01443287502443,1.0653336183020072,2.6528152097339035,0.31637167740234262,0.29991011892846897,0.18623684745774510,0.13743645576846536,26.728021336173800,0.71086444301379437,90.162341735163892,773.00000000000000,1388.0000000000000,3607.0000000000000,93.820755859049314,97.560000000000002,18.357666666666660,0.51348386953734459,20.956468262173303,0.16660429971510859